Weather History for Lihue, HI

Change the Weather History Date:

Friday, June 28, 2013

  Actual Average Record
Temperature  
Mean Temperature 75 °F 79 °F  
Max Temperature 80 °F 84 °F 88 °F (1982)
Min Temperature 70 °F 74 °F 66 °F (1951)
Degree Days  
Heating Degree Days 0 0  
Month to date heating degree days 0 0  
Since 1 June heating degree days 0 0  
Since 1 July heating degree days 0 0  
Cooling Degree Days 10 14  
Month to date cooling degree days 361 367  
Year to date cooling degree days 1443 1606  
Since 1 June cooling degree days 361 367  
Growing Degree Days 25 (Base 50)    
Moisture  
Dew Point 69 °F    
Average Humidity 84    
Maximum Humidity 93    
Minimum Humidity 74    
Precipitation  
Precipitation 0.09 in 0.06 in 0.64 in (2001)
Month to date precipitation 0.58 1.50  
Year to date precipitation 15.38 17.34  
Snow  
Snow 0.00 in - - ()
Month to date snowfall 0.0  
Since 1 June snowfall 0.0  
Since 1 July snowfall 0.0  
Snow Depth 0.00 in    
Sea Level Pressure  
Sea Level Pressure 30.03 in    
Wind  
Wind Speed 12 mph (NE)    
Max Wind Speed 18 mph    
Max Gust Speed 22 mph    
Visibility 10 miles    
Events Rain    
T = Trace of Precipitation, MM = Missing Value Source: NWS Daily Summary

Daily Weather History Graph

Daily Weather History Graph

Search for Another Location

Airport:

Trip Planner

Search our weather history database for the weather conditions in past years. The results will help you decide how hot, cold, wet, or windy it might be!

Date:

Astronomy

Jun. 28, 2013 Rise Set
Actual Time 5:56 AM HST 7:24 PM HST
Civil Twilight 5:31 AM HST 7:49 PM HST
Nautical Twilight 5:02 AM HST 8:19 PM HST
Astronomical Twilight 4:31 AM HST 8:50 PM HST
Moon 11:50 PM HST (6/28) 11:30 AM HST (6/28)
Length of Visible Light 14h 17m
Length of Day
13h 27m
Waning Gibbous, 64% of the Moon is Illuminated
Jun 28
Waning Gibbous
Jun 29
Last Quarter
Jul 7
New
Jul 15
First Quarter
Jul 22
Full

Hourly Weather History & Observations

Time (HST) Temp. Dew Point Humidity Pressure Visibility Wind Dir Wind Speed Gust Speed Precip Events Conditions
12:13 AM 73.4 °F 69.8 °F 88% 30.05 in 10.0 mi ENE 12.7 mph - N/A   Overcast
12:33 AM 73.4 °F 68.0 °F 83% 30.04 in 10.0 mi NE 12.7 mph - N/A   Mostly Cloudy
12:53 AM 73.0 °F 69.1 °F 87% 30.04 in 10.0 mi NE 11.5 mph - N/A   Overcast
1:53 AM 73.0 °F 68.0 °F 84% 30.01 in 10.0 mi ENE 11.5 mph - N/A   Overcast
2:53 AM 73.0 °F 66.9 °F 81% 30.01 in 10.0 mi NE 11.5 mph - N/A   Mostly Cloudy
3:53 AM 72.0 °F 68.0 °F 87% 30.00 in 10.0 mi NE 12.7 mph - N/A   Scattered Clouds
4:22 AM 71.6 °F 69.8 °F 94% 30.01 in 10.0 mi NE 13.8 mph - N/A   Mostly Cloudy
4:36 AM 71.6 °F 69.8 °F 94% 30.01 in 10.0 mi NNE 12.7 mph - N/A   Overcast
4:51 AM 71.6 °F 69.8 °F 94% 30.01 in 10.0 mi NNE 11.5 mph - N/A   Mostly Cloudy
4:53 AM 71.1 °F 69.1 °F 93% 30.01 in 10.0 mi NNE 10.4 mph - N/A   Mostly Cloudy
5:03 AM 71.6 °F 69.8 °F 94% 30.01 in 10.0 mi NNE 10.4 mph - N/A   Overcast
5:53 AM 72.0 °F 68.0 °F 87% 30.02 in 10.0 mi NNE 11.5 mph - N/A   Mostly Cloudy
6:30 AM 71.6 °F 68.0 °F 88% 30.03 in 10.0 mi NE 12.7 mph - N/A   Overcast
6:53 AM 73.9 °F 69.1 °F 85% 30.03 in 10.0 mi NE 13.8 mph - N/A   Overcast
7:10 AM 73.4 °F 68.0 °F 83% 30.04 in 10.0 mi NE 12.7 mph - N/A   Mostly Cloudy
7:53 AM 73.0 °F 69.1 °F 87% 30.04 in 10.0 mi NE 6.9 mph - 0.02 in Rain Light Rain
7:58 AM 73.4 °F 69.8 °F 88% 30.05 in 10.0 mi NE 13.8 mph - 0.00 in   Mostly Cloudy
8:53 AM 75.9 °F 69.1 °F 79% 30.05 in 10.0 mi NE 10.4 mph - 0.00 in   Partly Cloudy
9:48 AM 71.6 °F 68.0 °F 88% 30.06 in 1.8 mi ENE 5.8 mph 21.9 mph 0.03 in Rain Heavy Rain
9:53 AM 72.0 °F 69.1 °F 91% 30.05 in 5.0 mi ENE 15.0 mph 18.4 mph 0.07 in Rain Light Rain
10:30 AM 75.2 °F 69.8 °F 83% 30.05 in 10.0 mi NE 12.7 mph - 0.00 in   Mostly Cloudy
10:53 AM 77.0 °F 69.1 °F 76% 30.04 in 10.0 mi NE 12.7 mph 19.6 mph 0.00 in   Overcast
11:50 AM 77.0 °F 71.6 °F 83% 30.04 in 10.0 mi ENE 13.8 mph 21.9 mph N/A   Mostly Cloudy
11:53 AM 78.1 °F 71.1 °F 79% 30.04 in 10.0 mi ENE 15.0 mph 21.9 mph N/A   Scattered Clouds
12:53 PM 79.0 °F 69.1 °F 72% 30.02 in 10.0 mi NE 15.0 mph - N/A   Scattered Clouds
1:53 PM 77.0 °F 69.1 °F 76% 30.01 in 10.0 mi NE 13.8 mph - N/A   Mostly Cloudy
2:53 PM 77.0 °F 69.1 °F 76% 30.00 in 10.0 mi NE 11.5 mph - N/A   Overcast
3:53 PM 78.1 °F 69.1 °F 74% 30.00 in 9.0 mi East 16.1 mph - N/A   Mostly Cloudy
4:53 PM 77.0 °F 69.1 °F 76% 29.99 in 10.0 mi NE 12.7 mph - 0.00 in   Partly Cloudy
5:53 PM 75.0 °F 68.0 °F 79% 30.00 in 10.0 mi NE 10.4 mph - N/A   Partly Cloudy
6:53 PM 71.1 °F 68.0 °F 90% 30.01 in 10.0 mi NNE 8.1 mph - 0.03 in   Mostly Cloudy
7:53 PM 72.0 °F 68.0 °F 87% 30.02 in 10.0 mi NNE 10.4 mph - N/A   Scattered Clouds
8:53 PM 71.1 °F 68.0 °F 90% 30.03 in 10.0 mi North 8.1 mph - N/A   Partly Cloudy
9:53 PM 71.1 °F 69.1 °F 93% 30.04 in 10.0 mi North 8.1 mph - 0.00 in Rain Light Rain
10:43 PM 71.6 °F 69.8 °F 94% 30.05 in 10.0 mi NE 10.4 mph - 0.00 in   Scattered Clouds
10:53 PM 72.0 °F 70.0 °F 93% 30.04 in 10.0 mi NE 13.8 mph - 0.00 in   Mostly Cloudy
11:09 PM 71.6 °F 69.8 °F 94% 30.05 in 10.0 mi NNE 8.1 mph - 0.01 in   Mostly Cloudy
11:24 PM 71.6 °F 69.8 °F 94% 30.04 in 9.0 mi ENE 9.2 mph - 0.01 in Rain Light Rain
11:31 PM 71.6 °F 69.8 °F 94% 30.04 in 10.0 mi NE 10.4 mph - 0.01 in Rain Light Rain
11:53 PM 72.0 °F 69.1 °F 91% 30.03 in 10.0 mi NE 11.5 mph - 0.01 in   Partly Cloudy